Showing default

NAVSTAR 80 (USA 309), 46826

Orbit data source: Space-Track

NAVSTAR 80 (USA 309), 46826 is a payload satellite owned by USSF SMC (US) in MEO that was launched on Thu, 05 Nov 2020 UTC via an FALCON 9 launch vehicle from the Air Force Eastern Test Range (AFETR). Payload-class satellites include a variety of spacecraft equipped with specific instruments for various scientific and technological missions. These include communications satellites like Starlink; space stations such as the ISS; scientific satellites like the Hubble; Earth observation satellites from companies like Planet Labs, Umbra, and HawkEye 360; GPS; miniature CubeSats for education and research; and military/defense satellites.

Loading next visibility...
Identifier
46826, 2020-078A
Orbit
MEO
Country
Flag of USUS
Related business
Manufacturer
LMSS Denver
Mission
Operational Defense Navigation
Bus & Motor
A2100, LEROS-1C?
Mass
4,400 kg wet, ~2,160 kg dry
Launch date (UTC)
2020-11-05 (6 years ago)
Launch vehicle
FALCON 9
Launch site
Air Force Eastern Test Range (AFETR)
Object type
Payload
Rocket body
Debris
Shape & HBR
Box + 2 Pan, 1.7 m
Radar Cross Section
7.740 m², Large (>1 m²)

Expand to show TLE details & history
Last TLE update: 2 days ago

TLE from 2 days ago
0 NAVSTAR 80 (USA 309)
1 46826U 20078A   26171.27904749  .00000028  00000-0  00000+0 0  9991
2 46826  53.9792 210.6528 0073634 207.3587 167.3205  2.00564914 41574
Epoch: 2026-06-20T06:41Z
TLE epoch observation values (Epoch: 2026-06-20T06:41:49.703Z)
Latitude
11.94135°
Longitude
-149.45333°
Altitude
20,372.658 km
Speed
3.846 km/s
True Right ascension
14h 37m 59s
True Declination
11° 55' 22"
Sunlit
Object was in daylight at epoch
Visualization orbit readout
Latitude
Unknown
Longitude
Unknown
Altitude
Unknown
Speed
Unknown
Apparent Right ascension
Unknown
Apparent Declination
Unknown
Sunlit
N/A
Visualization observer readout
Local Sidereal Time
00:39:39
Azimuth
Unknown
Elevation
Unknown
Doppler factor
Unknown
Orbital elements
Apogee altitude
20,377.717 km
Perigee altitude
19,986.569 km
Semi-major axis
26,560.28 km
Eccentricity
0.00736
Inclination
53.9792°
RAAN
210.6528°
Arg. of periapsis
207.3587°
True anomaly
167.50406°
Mean anomaly
167.3205°
Eccentric anomaly
167.41244°
Mean motion
0.50141 °/min
Orbital period
717.97 mins
BSTAR
0
Loading maneuver chart data...
Computing Atmospheric mass density...
Loading historical data...
Loading historical data...
Loading historical data...
Loading historical data...
Loading historical data...
Loading historical data...
Loading historical data...
Other satellites on launch #78 in the year 2020 (2020-11-05 UTC)

Documentation

Showing up to 5 results
|